Weather History for PAOH - May, 2013

Change the Weather History Date:

Saturday, May 18, 2013

  Actual Average Record
Temperature  
Mean Temperature 42 °F -  
Max Temperature 47 °F 54 °F 70 °F (2015)
Min Temperature 38 °F 37 °F 28 °F (2007)
Degree Days  
Heating Degree Days 22    
Moisture  
Dew Point 41 °F    
Average Humidity 85    
Maximum Humidity 100    
Minimum Humidity 58    
Precipitation  
Precipitation 0.02 in - - ()
Sea Level Pressure  
Sea Level Pressure 29.91 in    
Wind  
Wind Speed 7 mph (WSW)    
Max Wind Speed 15 mph    
Max Gust Speed 18 mph    
Visibility 9 miles    
Events Rain    
Averages and records for this station are not official NWS values.
T = Trace of Precipitation, MM = Missing Value Source: NWS Daily Summary

Daily Weather History Graph

Daily Weather History Graph

Search for Another Location

Airport or City:

Trip Planner

Search our weather history database for the weather conditions in past years. The results will help you decide how hot, cold, wet, or windy it might be!

Date:

Astronomy

May. 18, 2013 Rise Set
Actual Time 4:29 AM AKDT 9:28 PM AKDT
Civil Twilight 3:31 AM AKDT 10:26 PM AKDT
Nautical Twilight 1:29 AM AKDT 12:44 AM AKDT
Astronomical Twilight Sun does not rise Sun does not rise
Moon 1:09 PM AKDT (5/18) 2:00 AM AKDT (5/18)
Length of Visible Light 18h 55m
Length of Day
16h 58m
First Quarter, 56% of the Moon is Illuminated
May 18
First Quarter
May 24
Full
May 31
Last Quarter
Jun 8
New
Jun 16
First Quarter

Hourly Weather History & Observations

Time (AKDT) Temp. Windchill Dew Point Humidity Pressure Visibility Wind Dir Wind Speed Gust Speed Precip Events Conditions
12:22 AM 46.4 °F 42.4 °F 46.4 °F 100% 29.70 in 8.0 mi East 8.1 mph - 0.00 in Rain Light Rain
12:56 AM 46.9 °F - 45.9 °F 96% 29.70 in 8.0 mi ENE 9.2 mph - 0.00 in Rain Light Rain
1:56 AM 47.8 °F - 45.9 °F 93% 29.70 in 10.0 mi ENE 8.1 mph - 0.01 in Rain Light Rain
2:56 AM 47.8 °F - 45.9 °F 93% 29.71 in 10.0 mi ENE 5.8 mph - 0.00 in   Overcast
3:56 AM 47.8 °F - 45.9 °F 93% 29.72 in 10.0 mi East 5.8 mph - 0.00 in Rain Light Rain
4:56 AM 45.9 °F - 45.9 °F 100% 29.73 in 10.0 mi Calm Calm - 0.00 in   Mostly Cloudy
5:56 AM 47.8 °F - 45.9 °F 93% 29.73 in 10.0 mi East 6.9 mph - N/A   Overcast
6:56 AM 47.8 °F - 45.9 °F 93% 29.74 in 10.0 mi ENE 4.6 mph - N/A   Overcast
7:56 AM 47.8 °F - 47.8 °F 100% 29.76 in 5.0 mi Calm Calm - 0.00 in Rain Light Rain
8:56 AM 47.8 °F - 47.8 °F 100% 29.78 in 10.0 mi WNW 4.6 mph - 0.01 in   Overcast
9:56 AM 46.4 °F 42.9 °F 44.6 °F 93% 29.81 in 6.0 mi WNW 6.9 mph - N/A Rain Light Rain
10:56 AM 45.9 °F 42.9 °F 43.0 °F 90% 29.85 in 6.0 mi Variable 5.8 mph - 0.00 in Rain Light Rain
11:56 AM 46.9 °F - 41.0 °F 80% 29.87 in 10.0 mi SW 11.5 mph 17.3 mph 0.00 in   Overcast
12:56 PM 46.4 °F 41.1 °F 41.0 °F 81% 29.90 in 10.0 mi WSW 11.5 mph 18.4 mph N/A   Mostly Cloudy
1:56 PM 46.9 °F - 41.0 °F 80% 29.94 in 10.0 mi WSW 9.2 mph - 0.00 in   Mostly Cloudy
2:56 PM 46.9 °F - 37.9 °F 71% 29.99 in 10.0 mi SW 9.2 mph - 0.00 in   Overcast
3:56 PM 44.6 °F 40.2 °F 37.4 °F 76% 30.03 in 8.0 mi WSW 8.1 mph - N/A Rain Light Rain
4:56 PM 45.9 °F 41.2 °F 34.0 °F 63% 30.06 in 10.0 mi WSW 9.2 mph - 0.00 in   Overcast
5:56 PM 46.9 °F - 32.9 °F 58% 30.08 in 10.0 mi SW 15.0 mph - N/A   Partly Cloudy
6:56 PM 42.8 °F 37.0 °F 35.6 °F 76% 30.10 in 10.0 mi SW 10.4 mph - N/A   Scattered Clouds
7:56 PM 41.9 °F 36.9 °F 34.9 °F 76% 30.14 in 10.0 mi WSW 8.1 mph - 0.00 in   Partly Cloudy
8:56 PM 41.9 °F 36.9 °F 32.0 °F 68% 30.16 in 10.0 mi WSW 8.1 mph - N/A   Clear
9:56 PM 39.2 °F 33.6 °F 33.8 °F 81% 30.19 in 10.0 mi West 8.1 mph - N/A   Scattered Clouds
10:56 PM 38.8 °F 35.4 °F 34.9 °F 86% 30.22 in 10.0 mi West 4.6 mph - 0.00 in   Mostly Cloudy
11:56 PM 38.8 °F 33.2 °F 34.0 °F 83% 30.24 in 10.0 mi WNW 8.1 mph - N/A   Mostly Cloudy